User: anonymous   Login
Location: ??
(35.4032°N, 139.3073°E)
Time: 05:50:55
(UTC+00:00)
Language:

Cosmos 1805 - Orbit

View from above orbital plane
View from above orbital plane
View from above satellite
View from above satellite

Ground track
Ground track

The orbit data is extracted from the following two-line orbital elements,

1 17191U 86097A   24174.58289334  .00007715  00000-0  30576-3 0  9993
2 17191  82.4694  15.4911 0002494 196.6907 163.4249 15.25244945 51143
Epoch (UTC): 22 June 2024 13:59:21
Eccentricity: 0.0002494
inclination: 82.4694°
perigee height: 488 km
apogee height: 492 km
right ascension of ascending node: 15.4911°
argument of perigee: 196.6907°
revolutions per day: 15.25244945
mean anomaly at epoch: 163.4249°
orbit number at epoch: 5114

The dashed part of the orbit path shows where the satellite is in the earth's shadow,  

DLR